Regional Weather Roundup
Issued by NWS

Home | Current Version | Previous Version | Graphics & Text | Print | Product List | Glossary Off
Versions: 1 2 3 4 5 6 7 8 9 10 11 12 13 14 15 16 17 18 19 20 21 22 23 24 25 26 27 28 29 30 31 32 33 34 35 36 37 38 39 40 41 42 43 44 45 46 47 48 49 50

000
ASUS43 KMKX 101600
RWRWI

WISCONSIN REGIONAL WEATHER ROUNDUP
NATIONAL WEATHER SERVICE MILWAUKEE/SULLIVAN WI
1000 AM CST WED FEB 10 2016

NOTE: "FAIR" INDICATES FEW OR NO CLOUDS BELOW 12,000 FEET WITH NO
SIGNIFICANT WEATHER AND/OR OBSTRUCTIONS TO VISIBILITY.

WIZ001-002-006>008-014>016-023>028-101700-
NORTHWEST WISCONSIN

CITY           SKY/WX    TMP DP  RH WIND       PRES   REMARKS
SUPERIOR ARPT  CLOUDY    -1  -8  71 W6        30.16R WCI -13
ASHLAND        CLOUDY     5  -3  69 NW9       30.12R WCI  -9
HAYWARD        CLOUDY     3  -5  69 NE8       30.07R WCI -10
SIREN          CLOUDY    -2  -7  80 N5        30.12S WCI -12
CUMBERLAND     CLOUDY    -2  -8  78 NW3       30.08S
RICE LAKE      CLOUDY     0  -6  74 W7        30.11R WCI -13
CHETEK         CLOUDY     1  -6  73 NW5       30.09R WCI  -9
LADYSMITH      CLOUDY     5  -4  66 N6        30.06R WCI  -6
EAU CLAIRE     NOT AVBL
MENOMONIE      CLOUDY     4  -5  66 W6        30.13R WCI  -7
NEW RICHMOND   CLOUDY     0  -8  69 NE6       30.12S WCI -11
OSCEOLA        CLOUDY     1  -7  70 N6        30.16S WCI -11
$$

WIZ003>005-009-010-017-018-101700-
NORTH CENTRAL WISCONSIN

CITY           SKY/WX    TMP DP  RH WIND       PRES   REMARKS
MANITOWISH WTR CLOUDY     4  -4  69 N8        29.97S WCI -10
ARBOR VITAE    CLOUDY     5  -4  67 N14       29.96S HAZE    WCI -12
WOODRUFF       CLOUDY     5  -4  67 N14       29.96S HAZE    WCI -12
RHINELANDER    CLOUDY     4  -7  60 N9G17     29.96S WCI -10
EAGLE RIVER    CLOUDY     4  -7  62 N10       29.95S WCI -12
LAND O LAKES   CLOUDY     4  -3  72 N10       29.96S HAZE    WCI -11
PHILLIPS       CLOUDY     4  -4  70 N8        29.99S WCI -10
TOMAHAWK       CLOUDY     4  -3  72 N9        29.98S WCI -10
MEDFORD        CLOUDY     2  -4  73 N9        29.99R WCI -12
MERRILL        CLOUDY     6  -3  68 N9        30.00R WCI  -8
$$

WIZ029-030-035-036-043>047-101700-
CENTRAL WISCONSIN

CITY           SKY/WX    TMP DP  RH WIND       PRES   REMARKS
WAUSAU         CLOUDY     8  -3  61 N10G17    29.99R WCI  -6
MOSINEE        NOT AVBL
MARSHFIELD     SUNNY      4  -6  63 NW13      30.01R WCI -13
STEVENS POINT  CLOUDY     6  -3  68 NW8       30.01S WCI  -7
WAUPACA        CLOUDY    12  -2  52 N9        30.02S WCI   0
WAUTOMA        NOT AVBL
WISC RAPIDS    MOSUNNY    6  -5  60 N12       30.05R WCI  -9
CAMP DOUGLAS   NOT AVBL
$$

WIZ011>013-019>022-031-037>040-048>050-101700-
NORTHEAST WISCONSIN

CITY           SKY/WX    TMP DP  RH WIND       PRES   REMARKS
ANTIGO         CLOUDY     4  -6  63 N16       29.96R WCI -15
SHAWANO        CLOUDY    10  -5  50 N14       30.03R WCI  -5
OCONTO         SUNNY      9  -4  54 NW12G17   30.02R WCI  -6
STURGEON BAY   SUNNY      9  -6  52 NW21G26   30.00R WCI -11
GREEN BAY      SUNNY      9  -4  55 NW17      30.01S WCI  -9
MANITOWOC      NOT AVBL
APPLETON       PTSUNNY    9  -6  52 NW12G18   29.99S WCI  -6
CLINTONVILLE   CLOUDY    10  -6  48 N12       30.02S WCI  -4
OSHKOSH        MOSUNNY    9  -4  55 N20       30.01S WCI -10
$$

WIZ032>034-041-042-053>061-101700-
SOUTHWEST WISCONSIN

CITY           SKY/WX    TMP DP  RH WIND       PRES   REMARKS
LA CROSSE      CLOUDY     5  -5  63 NW9       30.13R WCI  -9
SPARTA         SUNNY      4  -4  68 NW6       30.10R WCI  -6
VIROQUA        CLOUDY     3  -5  69 NW6       30.05R WCI  -8
BOSCOBEL       CLOUDY    10  -3  55 NW7       30.12R WCI  -1
PRAIRIE DU CHI CLOUDY     7  -5  58 NW8       30.12S WCI  -6
PLATTEVILLE    MOSUNNY    6  -3  68 NW9       30.07S WCI  -8
$$

WIZ056-057-062-063-064-067-068-101700-
SOUTH CENTRAL WISCONSIN

CITY           SKY/WX    TMP DP  RH WIND       PRES   REMARKS
REEDSBURG      SUNNY      4  -4  67 NW8       30.05S WCI  -9
BARABOO/DELLS  MOSUNNY    7  -4  61 NW5       30.04S WCI  -2
LONE ROCK      NOT AVBL
MINERAL POINT  SUNNY      9  -4  56 NW7       30.04R WCI  -3
MADISON        MOSUNNY    8  -3  61 NW10      30.04S WCI  -6
MIDDLETON      SUNNY      9  -1  64 NW6       30.04F WCI  -1
WATERTOWN      PTSUNNY   10   1  66 NW12      30.02S WCI  -4
MONROE         SUNNY     10   0  61 NW9       30.03S WCI  -2
JANESVILLE     MOSUNNY   12   1  62 NW12      30.04S WCI  -2
$$

WIZ051-052-058>065-066-070>072-101700-
SOUTHEAST WISCONSIN

CITY           SKY/WX    TMP DP  RH WIND       PRES   REMARKS
MILWAUKEE      MOSUNNY   12  -2  53 NW10      30.02R WCI  -1
WAUKESHA       PTSUNNY    9  -2  61 NW12G23   30.01R WCI  -6
MILWAUKEE/TIMM PTSUNNY   10  -2  56 N14       30.02R WCI  -5
RACINE         CLOUDY    13   0  56 NW13G20   30.03R WCI  -2
BURLINGTON     CLOUDY    10  -1  62 NW10      30.02R WCI  -4
KENOSHA        PTSUNNY   13   1  59 NW12      30.01S WCI  -1
FOND DU LAC    MOSUNNY   10  -3  55 N14G22    30.02R WCI  -6
SHEBOYGAN      SUNNY     10  -3  55 NW15      30.00R WCI  -7
WEST BEND      SUNNY     10  -4  52 NW15G22   30.00R WCI  -6
JUNEAU         CLOUDY     8   0  68 NW7       30.02S WCI  -3
$$

LSZ147-162-101700-
LAKE SUPERIOR

STATION/POSITION TIME  TEMP    WIND        PRES    WAVE
                       AIR SEA DIR/SP/G            HT/PER
                 (UTC) (F)     (DEG/KT/KT) (MB)    (FT/S)
DEVILS ISLAND    1500    4     360/ 13/ 17 1021.8R
PORT WING        1340    5      10/ 10/ 14 1020.0S
SAXON HARBOR     1500    9                 1018.6
$$

LMZ867-665-643>646-101700-
LAKE MICHIGAN

STATION/POSITION TIME  TEMP    WIND        PRES    WAVE
                       AIR SEA DIR/SP/G            HT/PER
                 (UTC) (F)     (DEG/KT/KT) (MB)    (FT/S)
CHAMBERS ISLAND  1500   10     300/ 18/ 23 1014.9R
ALGOMA LAKESHORE 1511          340/ 14/ 21   N/A
KEWAUNEE LAKESHO 1500    8     320/ 12/ 19 1014.8R
SHEBOYGAN LAKESH 1500    9     320/ 15/ 18 1017.6R
PORT WASHINGTON  1540   11     320/ 10/ 18 1017.3S
MILWAUKEE LAKESH 1510   12     330/ 12/ 17   N/A
KENOSHA   LAKESH 1500   11     340/ 14/ 18 1016.6R
$$

TC  - TEMPERATURE IN CELSIUS
VSB - VISIBILITY IN STATUTE MILES
WCI - WIND CHILL INDEX
HX  - HEAT INDEX




USA.gov is the U.S. government's official web portal to all federal, state and local government web resources and services.